Regional Weather Roundup
Issued by NWS

Home | Current Version | Previous Version | Text Only | Print | Product List | Glossary On
Versions: 1 2 3 4 5 6 7 8 9 10 11 12 13 14 15 16 17 18 19 20 21 22 23 24 25 26 27 28 29 30 31 32 33 34 35 36 37 38 39 40 41 42 43 44 45 46 47 48 49 50
000
ASUS44 KMEG 051010
RWRTN
TENNESSEE HOURLY STATE WEATHER ROUNDUP
NATIONAL WEATHER SERVICE MEMPHIS TN
400 AM CST THU MAR 05 2015

TNZ002-004-019-021-049-052-054-088>092-051100-
WEST TENNESSEE

CITY           SKY/WX    TMP DP  RH WIND       PRES   REMARKS
MEMPHIS INTL   LGT SNOW  21  17  84 NE18G28   30.28R FOG     WCI   6
NWS MEMPHIS      N/A     20 N/A N/A MISG        N/A
JACKSON        FOG       19  16  88 N18       30.28R VSB 1/2 WCI   4
DYERSBURG      CLOUDY    18   5  57 N16G24    30.34S WCI   3
UNION CITY       N/A     16  16 100 N13       30.32R WCI   2
PARIS          CLOUDY    16  12  86 N13       30.26F WCI   2
LEXINGTON      CLOUDY    19  18  93 N12       30.20R WCI   7
SAVANNAH       CLOUDY    25  23  93 N13       30.16S WCI  13
$$

TNZ008-025-027-028-033-062-065-066-051100-
NORTH MIDDLE TENNESSEE

CITY           SKY/WX    TMP DP  RH WIND       PRES   REMARKS
NASHVILLE      LGT SNOW  24  21  88 N16G24    30.16F FOG     WCI  11
CLARKSVILLE    CLOUDY    18  15  88 N15       30.25R FOG     WCI   4
SMYRNA         FRZ RAIN  25  23  91 CALM      30.16S
COOKEVILLE     CLOUDY    28  27  93 N8        30.06R WCI  20
CROSSVILLE     FRZ RAIN  32  29  88 N10       30.00R FOG     WCI  24
$$

TNZ061-075-076-078-094-096-097-051100-
SOUTH MIDDLE TENNESSEE

CITY           SKY/WX    TMP DP  RH WIND       PRES   REMARKS
FAYETTEVILLE   CLOUDY    28  27  93 NE12        N/A  WCI  18
TULLAHOMA      CLOUDY    28  27  93 N13       30.02F WCI  18
WINCHESTER     CLOUDY    30  30 100 N10       30.03S WCI  21
MCMINNVILLE    CLOUDY    30  30 100 N9        30.05S WCI  22
COLUMBIA       CLOUDY   N/A N/A N/A N10       30.14R
SHELBYVILLE    CLOUDY    27  27 100 N8        30.06F WCI  18
$$

TNZ017-018-042-046-047-051100-
NORTHEAST TENNESSEE

CITY           SKY/WX    TMP DP  RH WIND       PRES   REMARKS
TRI CITIES     LGT RAIN  36  34  92 N12       29.97R WCI  28
ELIZABETHTON   DRIZZLE   39  37  93 SW6       29.91S WCI  35
$$

TNZ012-013-036-069-073-074-051100-
CENTRAL EAST TENNESSEE

CITY           SKY/WX    TMP DP  RH WIND       PRES   REMARKS
KNOXVILLE      LGT RAIN  36  34  92 N8        30.01R WCI  30
OAK RIDGE      LGT RAIN  37  35  92 VRB6      30.02R WCI  32
GATLINBURG     CLOUDY    37  36  93 W3        30.02R
MORRISTOWN     CLOUDY    37  37 100 N3        30.01R
$$

TNZ083-085-099-051100-
SOUTHEAST TENNESSEE

CITY           SKY/WX    TMP DP  RH WIND       PRES   REMARKS
CHATTANOOGA    HVY RAIN  40  37  89 N10       30.00R FOG     WCI  33
$$

SKY/WX REPORTED AS FAIR MEANS FEW OR NO CLOUDS BELOW
12 THOUSAND FEET.



USA.gov is the U.S. government's official web portal to all federal, state and local government web resources and services.